Terminal Aerodrome Forecast
Issued by NWS Paducah, KY

Home | Current Version | Previous Version | Text Only | Print | Product List | Glossary On
Versions: 1 2 3 4 5 6 7 8 9 10 11 12 13 14 15 16 17 18 19 20
000
FTUS43 KPAH 221700
TAFEVV
TAF
KEVV 221720Z 2218/2318 25008KT P6SM SCT050 BKN100
     FM230100 VRB02KT P6SM SCT050 BKN150
     FM231400 VRB03KT P6SM VCSH SCT050 BKN090=

USA.gov is the U.S. government's official web portal to all federal, state and local government web resources and services.